Location: Enid
(36.3960°N, 97.8780°W)
Time: 22:08:55
(UTC-06:00)

Hubble Space Telescope - Visible Passes

Search period start: 24 November 2017 00:00
Search period end: 04 December 2017 00:00
Orbit: 537 x 541 km, 28.5° (Epoch: 24 November)

Date Brightness Start Highest point End Pass type
(mag) Time Alt. Az. Time Alt. Az. Time Alt. Az.
24 Nov 2.5 05:42:32 19° SW 05:43:39 21° SSW 05:46:46 10° SE visible
25 Nov 2.6 05:32:57 18° SSW 05:33:20 19° SSW 05:36:14 10° SSE visible
26 Nov 2.9 05:23:23 16° S 05:23:23 16° S 05:25:36 10° SSE visible
27 Nov 3.3 05:13:50 13° S 05:13:50 13° S 05:14:49 10° SSE visible
